Home > Weather > Mutsamudu > Past weeks

Flag for Comoros Past Weather in Mutsamudu, Comoros — Yesterday and Last 2 Weeks

Now
75 °F

Passing clouds.


Feels Like: 76 °F
Forecast: 72 / 76 °F
Wind: 6 mph from Southwest

Location: Dzaoudzi / Pamanzi Mayotte

Current Time: Jul 30, 2016 at 8:36:23 AM

Latest Report: Jul 30, 2016 at 8:00 AM


Visibility: N/A

Pressure: 30.01 "Hg

Humidity: 78%

Dew Point: 68 °F

Location of MutsamuduLocation

Past Weather in Mutsamudu — Graph

°F

Mutsamudu Temperature Yesterday

Maximum temperature yesterday: 81 °F (at 9:30 AM)
Minimum temperature yesterday: 70 °F (at 12:30 AM)
Average temperature yesterday: 75 °F

High & Low Weather Summary for the Past Weeks

 TemperatureHumidityPressure
High82 °F (Jul 15, 10:30 AM)94% (Jul 16, 2:30 AM)30.12 "Hg (Jul 16, 2:30 AM)
Low68 °F (Jul 16, 1:30 AM)54% (Jul 27, 3:30 PM)29.95 "Hg (Jul 20, 2:30 PM)
Average77 °F72%30.02 "Hg
* Reported Jul 15 9:00 AM — Jul 30 7:30 AM, Mutsamudu, Weather by CustomWeather, © 2016

Note: Actual official high and low records may vary slightly from our data, if they occured in-between our weather recording intervals... More about our weather records

Advertising

Mutsamudu Weather History for the Previous 24 Hours

Scroll right to see more
 ConditionsComfort  
Time TempWeatherWind HumidityBarometerVisibility
7:30 AM
Sat, Jul 30
73 °FPassing clouds.7 mph83%30.01 "HgN/A
7:00 AM72 °FScattered clouds.5 mph88%29.98 "HgN/A
6:30 AM70 °FScattered clouds.5 mph88%29.98 "HgN/A
6:00 AM70 °FPassing clouds.2 mph88%29.98 "HgN/A
5:30 AM70 °FPassing clouds.3 mph94%29.98 "HgN/A
5:00 AM70 °FPassing clouds.5 mph88%29.95 "HgN/A
4:30 AM70 °FMild.5 mph88%29.95 "HgN/A
4:00 AM70 °FMild.1 mph88%29.95 "HgN/A
3:30 AM70 °FMild.2 mph88%29.95 "HgN/A
3:00 AM70 °FMild.No wind88%29.95 "HgN/A
2:30 AM70 °FMild.1 mph88%29.95 "HgN/A
2:00 AM72 °FMild.1 mph83%29.95 "HgN/A
1:30 AM72 °FMild.2 mph83%29.98 "HgN/A
1:00 AM72 °FMild.3 mph83%29.98 "HgN/A
12:30 AM70 °FMild.2 mph88%29.98 "HgN/A
12:00 AM70 °FMild.2 mph88%29.98 "HgN/A
11:30 PM
Fri, Jul 29
70 °FMild.No wind88%29.98 "HgN/A
11:00 PM70 °FMild.1 mph88%30.01 "HgN/A
10:30 PM70 °FMild.2 mph83%30.01 "HgN/A
10:00 PM72 °FMild.2 mph78%29.98 "HgN/A
9:30 PM72 °FPassing clouds.1 mph78%30.01 "HgN/A
9:00 PM73 °FMild.2 mph78%30.01 "HgN/A
8:30 PM75 °FPassing clouds.5 mph74%29.98 "HgN/A
8:00 PM75 °FPassing clouds.5 mph74%29.98 "HgN/A
7:30 PM75 °FPassing clouds.6 mph74%29.98 "HgN/A
7:00 PM75 °FPassing clouds.7 mph74%29.98 "HgN/A
6:30 PM75 °FMild.8 mph69%29.95 "HgN/A
6:00 PM75 °FPassing clouds.8 mph74%29.95 "HgN/A
5:30 PM77 °FPartly sunny.8 mph65%29.95 "HgN/A
5:04 PM79 °FScattered clouds.7 mph65%29.95 "HgN/A
4:38 PM79 °FPassing clouds.8 mph61%29.95 "HgN/A
4:00 PM79 °FPassing clouds.8 mph65%29.95 "HgN/A
3:30 PM79 °FScattered clouds.9 mph65%29.95 "HgN/A
3:00 PM81 °FScattered clouds.10 mph62%29.95 "HgN/A
2:30 PM81 °FScattered clouds.12 mph58%29.95 "HgN/A
2:00 PM81 °FScattered clouds.13 mph58%29.95 "HgN/A
1:30 PM81 °FPassing clouds.13 mph58%29.95 "HgN/A
1:00 PM81 °FPassing clouds.14 mph62%29.98 "HgN/A
12:30 PM81 °FPassing clouds.15 mph62%29.98 "HgN/A
12:05 PM81 °FPassing clouds.15 mph62%29.98 "HgN/A
11:30 AM81 °FScattered clouds.14 mph62%30.01 "HgN/A
11:00 AM81 °FPartly sunny.14 mph58%30.01 "HgN/A
10:30 AM81 °FPartly sunny.15 mph58%30.01 "HgN/A
10:00 AM81 °FPartly sunny.15 mph58%30.01 "HgN/A
9:30 AM81 °FScattered clouds.16 mph58%30.01 "HgN/A
9:00 AM79 °FPartly sunny.14 mph65%30.01 "HgN/A
8:30 AM79 °FScattered clouds.12 mph65%30.01 "HgN/A
8:00 AM79 °FScattered clouds.10 mph65%30.01 "HgN/A
Weather by CustomWeather, © 2016

See weather overviewHow to use our weather pages